This demonstration page uses our WeatherBlox Daily Observations layout. Learn more.

Left ArrowRight Arrow

41.86663, -103.66717

Hourly Observations for August 5, 2021

Temp ( °F °C ) Dew Point ( °F °C ) Humidity (%) Winds ( mph kmh ) Pressure ( in mb ) Visibility ( mi km ) Precip ( " mm )
12:53 am 00:53 Mostly Cloudy 66 18.9 60 15.6 81 81 N N/A 30.01 1016 9 14 N/A
1:53 am 01:53 Clear 63 17.2 59 15 87 87 NNW 3 6 29.99 1016 8 13 N/A
2:53 am 02:53 Clear 60 15.6 56 13.3 86 86 NNW 3 6 29.98 1015 8 13 N/A
3:53 am 03:53 Clear 59 15 55 12.8 87 87 WNW 6 9 29.98 1015 7 11 N/A
4:53 am 04:53 Clear 58 14.4 54 12.2 87 87 NW 3 6 29.99 1016 7 11 N/A
5:53 am 05:53 Hazy 57 13.9 52 11.1 83 83 NNW 6 9 30.00 1016 6 10 N/A
6:53 am 06:53 Sunny 59 15 52 11.1 78 78 NW 3 6 30.01 1016 7 11 N/A
7:53 am 07:53 Sunny 63 17.2 52 11.1 68 68 WNW 6 9 30.03 1017 8 13 N/A
8:53 am 08:53 Sunny 69 20.6 53 11.7 57 57 W 6 9 30.02 1017 8 13 N/A
9:53 am 09:53 Sunny 76 24.4 54 12.2 47 47 VRB 5 7 29.99 1016 9 14 N/A
10:53 am 10:53 Sunny 84 28.9 53 11.7 34 34 N N/A 29.97 1015 9 14 N/A
11:53 am 11:53 Sunny 88 31.1 47 8.3 24 24 SSE 5 7 29.95 1014 9 14 N/A
12:53 pm 12:53 Sunny 91 32.8 41 5 17 17 VRB 5 7 29.92 1013 9 14 N/A
1:53 pm 13:53 Sunny 93 33.9 39 3.9 15 15 VRB 6 9 29.89 1012 8 13 N/A
2:53 pm 14:53 Sunny 95 35 45 7.2 18 18 E 12 19 29.87 1012 8 13 N/A
3:53 pm 15:53 Sunny 95 35 46 7.8 19 19 E 8 13 29.84 1011 8 13 N/A
4:53 pm 16:53 Sunny 93 33.9 54 12.2 27 27 E 10 17 29.82 1010 8 13 N/A
5:53 pm 17:53 Sunny 88 31.1 58 14.4 36 36 E 8 13 29.82 1010 7 11 N/A
6:21 pm 18:21 Sunny with Thunderstorms 84 28.9 46 7.8 27 27 N 30 48 29.70 1006 7 11 N/A
6:29 pm 18:29 Partly Cloudy with Thunderstorms 78 25.6 52 11.1 40 40 NNE 18 30 29.75 1007 5 8 0.00 0.00
6:38 pm 18:38 Mostly Cloudy with Rain 75 24 57 14 54 54 NNE 21 33 29.75 1007 4 6 N/A
6:53 pm 18:53 Partly Cloudy 80 26.7 52 11.1 38 38 ENE 13 20 29.87 1012 10 16 0.04 1.02
7:53 pm 19:53 Sunny 77 25 50 10 39 39 S 9 15 29.86 1011 10 16 N/A
8:53 pm 20:53 Clear 71 21.7 55 12.8 57 57 NE 12 19 29.89 1012 10 16 N/A
9:53 pm 21:53 Clear 72 22.2 50 10 46 46 E 9 15 29.86 1011 10 16 N/A
10:53 pm 22:53 Clear 71 21.7 52 11.1 51 51 N N/A 29.86 1011 10 16 N/A
11:53 pm 23:53 Clear 68 20 54 12.2 61 61 E 6 9 29.85 1011 10 16 N/A

Powered by AerisWeather